Torna al catalogo

SCATSAT 1

AttivoMeteoSSO
NORAD 41790·PAYLOAD·🇮🇳 India

Lanciato Sep 26, 2016 da Satish Dhawan Space Centre

Loading…

Prossimi Passaggi (prossime 24 ore)

TLE

AggiornatoSource: Space-Track

Epoca: Sep 13, 2026, 17:39 UTC

1 41790U 16059H   26256.73552014  .00000719  00000-0  10106-3 0  9998
2 41790  98.1107 321.3832 0053556 323.7297  36.0287 14.79701753114688

Traccia SCATSAT 1 in tempo reale con AllMySat

Download on the App Store